Regional Weather Roundup
Issued by NWS Sterling, VA

Home | Current Version | Previous Version | Graphics & Text | Print | Product List | Glossary On
Versions: 1 2 3 4 5 6 7 8 9 10 11 12 13 14 15 16 17 18 19 20 21 22 23 24 25 26 27 28 29 30 31 32 33 34 35 36 37 38 39 40 41 42 43 44 45 46 47 48 49 50
000
ASUS41 KLWX 040110
RWRLWX

REGIONAL WEATHER ROUNDUP
NATIONAL WEATHER SERVICE BALTIMORE MD/WASHINGTON DC
900 PM EDT MON AUG 03 2015

Note: "FAIR" indicates few or no clouds below 12,000 feet
with no significant weather and/or obstructions to visibility.
 TC=TEMPERATURE CELSIUS

 * =Non NWS site. Station does not report precipitation (e.g. rain,
    snow, etc.), thunder, or fog.

DCZ001-MDZ009-015-VAZ040>042-051-053>054-040200-
WASHINGTON METRO

CITY           SKY/WX    TMP DP  RH WIND       PRES   REMARKS
WASHINGTON NAT MOCLDY    86  69  56 S8        29.83R HX  90
DULLES         PTCLDY    80  64  58 S6        29.82S
ANDREWS AFB    PTCLDY    82  67  62 S8        29.83S
FT BELVOIR     PTCLDY    78  69  73 SE3       29.83S
COLLEGE PARK*  PTCLDY    86  63  45 S3        29.82R
LEESBURG*      CLEAR     81  68  65 SW12      29.84S
GAITHERSBURG*  CLEAR     82  63  51 S3        29.87S

$$

MDZ006>007-011-014-040200-
BALTIMORE METRO

CITY           SKY/WX    TMP DP  RH WIND       PRES   REMARKS
BWI AIRPORT    PTCLDY    83  64  52 S5        29.81S
MD SCIENCE CTR   N/A     86  64  47 MISG      29.81S
ANNAPOLIS      PTCLDY    83  68  60 S6        29.83R
FORT MEADE*    PTCLDY    73  68  83 S3        29.85R

$$

MDZ012-015-019>023-040200-
MARYLAND EASTERN SHORE

CITY           SKY/WX    TMP DP  RH WIND       PRES   REMARKS
OCEAN CITY     PTCLDY    81  75  82 SW13      29.86R
SALISBURY      CLEAR     78  68  71 S7        29.86R
BAY BRIDGE AP*   N/A     82  68  61 S6        29.83R
CAMBRIDGE*     CLEAR     81  72  74 S6        29.84R
EASTON*        PTCLDY    82  75  78 SW7       29.87R

$$

MDZ017>025-040200-
SOUTHERN MARYLAND

CITY           SKY/WX    TMP DP  RH WIND       PRES   REMARKS
PATUXENT RIVER PTCLDY    81  71  71 SW7       29.84R
ST INIGOES     CLEAR     82  72  71 S6        29.84R
LEONARDTOWN*   CLEAR     81  70  69 CALM      29.87R

$$

MDZ003>005-040200-
NORTH CENTRAL MARYLAND

CITY           SKY/WX    TMP DP  RH WIND       PRES   REMARKS
FREDERICK*     PTCLDY    79  66  65 CALM      29.84S
HAGERSTOWN APT MOCLDY    83  60  45 S6        29.83R
WESTMINSTER*   PTCLDY    81  63  54 S5        29.84S

$$

MDZ501>502-040200-
WESTERN MARYLAND

CITY           SKY/WX    TMP DP  RH WIND       PRES   REMARKS
OAKLAND*       PTCLDY    70  70 100 SW7       29.97S
CUMBERLAND*    PTCLDY    82  59  44 W9        29.88R

$$

VAZ025>031-040200-
SHENANDOAH VALLEY

CITY           SKY/WX    TMP DP  RH WIND       PRES   REMARKS
WINCHESTER*    PTCLDY    81  64  57 CALM      29.84S
FRONT ROYAL*   MOCLDY    77  66  69 S3        29.83S
LURAY*         FAIR      81  64  57 SW5       29.86S
NEW MARKET*    FAIR      79  64  59 W6        29.85R
STAUNTON*      CLEAR     82  61  49 S6        29.92R
WAYNESBORO*    FAIR      75  63  64 S6        29.92R

$$

WVZ021-048>050-054>055-040200-
EASTERN WEST VIRGINIA PANHANDLE

CITY           SKY/WX    TMP DP  RH WIND       PRES   REMARKS
MARTINSBURG    PTCLDY    79  64  60 S3        29.83S
PETERSBURG*    CLEAR     73  61  65 W3        29.87S

$$

VAZ036>039-050-040200-
CENTRAL FOOTHILLS

CITY           SKY/WX    TMP DP  RH WIND       PRES   REMARKS
CHARLOTTESVILL CLEAR     81  61  50 SW7       29.87R
CULPEPER*      CLEAR     74  66  75 CALM      29.85S
ORANGE*        CLEAR     77  64  65 CALM      29.88R
GORDONSVILLE*  FAIR      73  68  83 CALM      29.85S
WARRENTON*     FAIR      79  68  68 S5        29.84S

$$

VAZ055>057-040200-
NORTH AND CENTRAL PIEDMONT

CITY           SKY/WX    TMP DP  RH WIND       PRES   REMARKS
FREDERICKSBRG* PTCLDY    82  69  63 SW3       29.84R
STAFFORD*      PTCLDY    76  68  77 CALM      29.89R

$$

NCZ024-NYZ072-PAZ021-071-VAZ022-071-040200-
OTHER REGIONAL OBSERVATIONS

CITY           SKY/WX    TMP DP  RH WIND       PRES   REMARKS
NEW YORK CITY  PTCLDY    85  57  38 SW3       29.81R
PHILADELPHIA   PTCLDY    85  65  51 S9        29.81R
PITTSBURGH     MOCLDY    67  63  87 S5        29.83R THUNDER
ROANOKE        PTCLDY    82  59  45 W6        29.94R
RICHMOND       PTCLDY    80  71  74 S8        29.87R
RALEIGH        PTCLDY    85  70  60 S6        29.91R

$$

ANZ530>537-040200-
MARINE OBSERVATIONS

STATION/POSITION TIME  TEMP    WIND        PRES
                       AIR SEA DIR/SP/G
                 (UTC) (F)     (DEG/KT/KT) (MB)
THOMAS PT LIGHT  0000   83     190/ 10       N/A
BALT KEY BRIDGE  0000   85     180/  8/ 10 1009.1R
COVE POINT       0000   85     220/  9/ 12 1010.8R
LEWISETTA        0000   84 86  220/  8/  9 1010.1R
SOLOMONS ISLAND  0000      84                N/A
PINEY POINT      0000          230/ 10/ 11   N/A

$$



USA.gov is the U.S. government's official web portal to all federal, state and local government web resources and services.